Regional Weather Roundup
Issued by NWS

Home | Current Version | Previous Version | Text Only | Print | Product List | Glossary On
Versions: 1 2 3 4 5 6 7 8 9 10 11 12 13 14 15 16 17 18 19 20 21 22 23 24 25 26 27 28 29 30 31 32 33 34 35 36 37 38 39 40 41 42 43 44 45 46 47 48 49 50
000
ASUS43 KDTX 230201
RWRMI
MICHIGAN HOURLY REGIONAL WEATHER ROUNDUP
NATIONAL WEATHER SERVICE DETROIT/PONTIAC MI
1000 PM EDT MON SEP 22 2014

NOTE: "FAIR" INDICATES FEW OR NO CLOUDS BELOW 12,000 FEET WITH NO
SIGNIFICANT WEATHER AND/OR OBSTRUCTION TO VISIBILITY.

MIZ047>049-052>055-059>063-066>070-074>076-081>083-230300-
SOUTHEAST LOWER MICHIGAN

CITY           SKY/WX    TMP DP  RH WIND       PRES   REMARKS
ADRIAN         CLEAR     49  45  86 CALM      30.26R
ALMA           CLEAR     51  47  87 SW5       30.24R
ANN ARBOR      CLEAR     45  42  89 CALM      30.25R
BAD AXE        CLEAR     51  47  87 SW5       30.20S
CARO           CLEAR     46  46  98 CALM      30.21R
DETROIT CITY   CLEAR     55  45  68 CALM      30.25R
DETROIT        PTCLDY    53  46  77 CALM      30.26R
FLINT          CLEAR     51  45  79 SW5       30.24R
GROSSE ILE     CLEAR     54  46  76 CALM      30.24S
HILLSDALE      CLEAR     47  46  97 CALM      30.26R
HOWELL         CLEAR     48  45  90 SW5       30.25R

CITY           SKY/WX    TMP DP  RH WIND       PRES   REMARKS
JACKSON        CLEAR     49  46  90 CALM      30.26R
LAMBERTVILLE   CLEAR     48  45  87 CALM      30.26R
LANSING        CLEAR     53  45  74 W6        30.25R
LAPEER         FAIR      46  45  93 CALM      30.23S
MASON          CLEAR     49  45  85 CALM      30.26R
MONROE         CLEAR     46  45  93 CALM      30.24R
MT. CLEMENS    CLEAR     47  46  97 SW5       30.22R
PONTIAC        PTCLDY    51  45  79 CALM      30.23R
PORT HOPE        N/A     52  46  80 SW5       30.17R
PORT HURON     CLEAR     43  43 100 CALM      30.23R
TRI CITIES     CLEAR     54  48  80 SW6       30.23R
TROY           CLEAR     54  44  69 CALM      30.26R
SAGINAW HB     CLEAR     52  46  82 SW6       30.22R
$$
MIZ043>046-050>051-056>058-064>065-071>073-077>080-230300-
SOUTHWEST LOWER MICHIGAN

CITY           SKY/WX    TMP DP  RH WIND       PRES   REMARKS
BATTLE CREEK   CLEAR     50  44  80 CALM      30.27R
BENTON HARBOR  CLEAR     46  45  96 E3        30.26R
BIG RAPIDS     CLEAR     49  48  95 CALM      30.22S
COLDWATER      CLEAR     50  47  88 CALM      30.27R
FREMONT        FAIR      48  47  94 CALM      30.23S
HOLLAND        CLEAR     52  47  83 CALM      30.26R
GRAND RAPIDS   CLEAR     51  47  86 SW3       30.25R
IONIA          FAIR      51  47  85 W6        30.24S
KALAMAZOO      CLEAR     50  44  80 CALM      30.27R
LUDINGTON      CLEAR     55  51  87 S5        30.22R
MARSHALL       CLEAR     47  45  93 CALM      30.26R
MOUNT PLEASANT CLEAR     49  46  89 SW3       30.22R
MUSKEGON       PTCLDY    51  47  86 CALM      30.25R
SOUTH HAVEN    CLEAR     47  46  95 CALM      30.26S
$$
MIZ016>042-230300-
NORTHERN LOWER MICHIGAN

CITY           SKY/WX    TMP DP  RH WIND       PRES   REMARKS
ALPENA         CLEAR     53  47  79 SW5       30.15R
BEAVER ISLAND  CLEAR     58  52  81 SW14      30.13S
BELLAIRE       CLEAR     53  48  83 S3        30.17S
CADILLAC       CLEAR     48  46  93 SW5       30.20S
CHARLEVOIX     CLEAR     56  50  81 SW9       30.17S
FRANKFORT      CLEAR     56  50  79 CALM      30.19R
GAYLORD        CLEAR     50  45  83 SW8       30.16S
GRAYLING       CLEAR     52  47  82 SW3       30.19R
HARBOR SPRINGS CLEAR     58  49  73 W6        30.14S
HOUGHTON LAKE  CLEAR     54  46  74 SW7       30.19S
MANISTEE       CLEAR     52  46  82 CALM      30.21R
OSCODA         CLEAR     50  47  89 SW7       30.16S
PELLSTON       CLEAR     55  48  77 VRB5      30.13S
ROGERS CITY    CLEAR     52  49  88 SW7       30.15R
TRAVERSE CITY  CLEAR     54  46  74 VRB3      30.17R
$$
MIZ007>008-015-230300-
EASTERN UPPER MICHIGAN

CITY           SKY/WX    TMP DP  RH WIND       PRES   REMARKS
KINROSS        CLEAR     52  50  93 SW3       30.11S
MACKINAC ISLAN CLEAR     56  51  83 SW8       30.12R
NEWBERRY       CLEAR     51  49  92 SW10      30.10S
S. S. MARIE    CLEAR     52  48  86 SW7       30.10R
$$
MIZ004>006-011>014-085-230300-
CENTRAL UPPER MICHIGAN

CITY           SKY/WX    TMP DP  RH WIND       PRES   REMARKS
MANISTIQUE     CLEAR     55  52  92 SW6       30.11S
ESCANABA       CLEAR     54  46  76 W5        30.13R
MENOMINEE      CLEAR     55  48  76 W3        30.15R
SAWYER-GWINN   CLEAR     54  46  76 S6        30.12R
$$
MIZ001>003-009>011-084-230300-
WESTERN UPPER MICHIGAN

CITY           SKY/WX    TMP DP  RH WIND       PRES   REMARKS
IRON MOUNTAIN  CLEAR     51  47  86 CALM      30.13R
HOUGHTON       CLEAR     59  49  69 W10       30.07R
COPPER HARBOR    N/A     66  49  54 NW12G23   30.03S
IRONWOOD       CLEAR     57  52  82 SW7       30.12R
$$

ABBREVIATIONS USED IN REMARKS
   TC - TEMPERATURE IN CELSIUS
  WCI - WIND CHILL INDEX
   HX - HEAT INDEX
  VSB - VISIBILITY




USA.gov is the U.S. government's official web portal to all federal, state and local government web resources and services.